User: anonymous   Login
Location: *
(37.5724°S, 58.0067°E)
Time: 13:21:21
(UTC+00:00)
Language:

FengYun 1-2 T - Orbit

View from above orbital plane
View from above orbital plane
View from above satellite
View from above satellite

Ground track
Ground track

The orbit data is extracted from the following two-line orbital elements,

1 20855U 90081T   20330.95425404 -.00000035 +00000-0 +42745-5 0  9995
2 20855 098.7071 340.8553 0025012 109.3457 307.4114 14.08684414553576
Epoch (UTC): 25 November 2020 22:54:07
Eccentricity: 0.0025012
inclination: 98.7071°
perigee height: 846 km
apogee height: 882 km
right ascension of ascending node: 340.8553°
argument of perigee: 109.3457°
revolutions per day: 14.08684414
mean anomaly at epoch: 307.4114°
orbit number at epoch: 55357

The dashed part of the orbit path shows where the satellite is in the earth's shadow,  

DLR